Time,TemperatureF,DewpointF,PressureIn,WindDirection,WindDirectionDegrees,WindSpeedMPH,WindSpeedGustMPH,Humidity,HourlyPrecipIn,Conditions,Clouds,dailyrainin,SoftwareType,DateUTC
2013-12-18 00:03:00,17.2,13.8,25.34,North,-999,0.0,0.0,86,0.00,,,-99.99,FreeWX 2.04,2013-12-18 07:03:00,
2013-12-18 00:08:00,17.4,14.0,25.34,North,-999,0.0,0.0,86,0.00,,,-99.99,FreeWX 2.04,2013-12-18 07:08:00,
2013-12-18 00:13:00,16.9,13.5,25.34,North,-999,0.0,0.0,86,0.00,,,-99.99,FreeWX 2.04,2013-12-18 07:13:00,
2013-12-18 00:18:00,17.4,14.0,25.34,North,-999,0.0,0.0,86,0.00,,,-99.99,FreeWX 2.04,2013-12-18 07:18:00,
2013-12-18 00:23:00,18.0,14.7,25.34,North,-999,0.0,3.1,87,0.00,,,-99.99,FreeWX 2.04,2013-12-18 07:23:00,
2013-12-18 00:28:00,18.1,14.9,25.31,NNW,333,2.0,3.6,87,0.00,,,-99.99,FreeWX 2.04,2013-12-18 07:28:00,
2013-12-18 00:33:00,18.0,14.5,25.31,NNW,333,1.0,3.1,86,0.00,,,-99.99,FreeWX 2.04,2013-12-18 07:33:00,
2013-12-18 00:39:00,18.3,15.1,25.31,North,-999,0.0,2.7,87,0.00,,,-99.99,FreeWX 2.04,2013-12-18 07:39:00,
2013-12-18 00:44:00,17.8,14.5,25.31,North,-999,0.0,0.0,87,0.00,,,-99.99,FreeWX 2.04,2013-12-18 07:44:00,
2013-12-18 00:49:00,16.7,13.3,25.31,North,-999,0.0,3.1,86,0.00,,,-99.99,FreeWX 2.04,2013-12-18 07:49:00,
2013-12-18 00:54:00,16.9,13.5,25.31,NNW,334,1.0,3.6,86,0.00,,,-99.99,FreeWX 2.04,2013-12-18 07:54:00,
2013-12-18 00:59:00,16.2,12.9,25.31,NNW,334,1.0,2.7,87,0.00,,,-99.99,FreeWX 2.04,2013-12-18 07:59:00,
2013-12-18 01:04:00,16.0,12.7,25.31,North,-999,0.0,0.0,87,0.00,,,-99.99,FreeWX 2.04,2013-12-18 08:04:00,
2013-12-18 01:09:00,16.2,12.9,25.31,North,-999,0.0,0.0,87,0.00,,,-99.99,FreeWX 2.04,2013-12-18 08:09:00,
2013-12-18 01:14:00,16.0,12.7,25.31,North,-999,0.0,3.1,87,0.00,,,-99.99,FreeWX 2.04,2013-12-18 08:14:00,
2013-12-18 01:19:00,16.0,12.7,25.31,NNW,334,1.0,3.1,87,0.00,,,-99.99,FreeWX 2.04,2013-12-18 08:19:00,
2013-12-18 01:24:00,16.2,13.3,25.31,North,-999,0.0,2.7,88,0.00,,,-99.99,FreeWX 2.04,2013-12-18 08:24:00,
2013-12-18 01:29:00,15.8,12.9,25.31,North,-999,0.0,0.0,88,0.00,,,-99.99,FreeWX 2.04,2013-12-18 08:29:00,
2013-12-18 01:34:00,16.3,13.5,25.31,North,-999,0.0,0.0,88,0.00,,,-99.99,FreeWX 2.04,2013-12-18 08:34:00,
2013-12-18 01:39:00,16.9,14.0,25.31,North,-999,0.0,3.1,88,0.00,,,-99.99,FreeWX 2.04,2013-12-18 08:39:00,
2013-12-18 01:44:00,17.4,14.5,25.31,NNW,334,1.0,3.1,88,0.00,,,-99.99,FreeWX 2.04,2013-12-18 08:44:00,
2013-12-18 01:49:00,17.2,14.4,25.31,North,-999,0.0,0.0,88,0.00,,,-99.99,FreeWX 2.04,2013-12-18 08:49:00,
2013-12-18 01:54:00,16.0,13.1,25.31,North,-999,0.0,4.0,88,0.00,,,-99.99,FreeWX 2.04,2013-12-18 08:54:00,
2013-12-18 01:59:00,15.6,12.4,25.31,NNE,27,2.0,4.0,87,0.00,,,-99.99,FreeWX 2.04,2013-12-18 08:59:00,
2013-12-18 02:04:00,16.2,12.9,25.31,NE,48,2.0,4.5,87,0.00,,,-99.99,FreeWX 2.04,2013-12-18 09:04:00,
2013-12-18 02:09:00,16.0,13.1,25.31,NE,48,3.0,4.0,88,0.00,,,-99.99,FreeWX 2.04,2013-12-18 09:09:00,
2013-12-18 02:14:00,16.0,13.1,25.31,NE,48,3.0,3.6,88,0.00,,,-99.99,FreeWX 2.04,2013-12-18 09:14:00,
2013-12-18 02:19:00,15.8,12.9,25.31,NE,48,2.0,3.6,88,0.00,,,-99.99,FreeWX 2.04,2013-12-18 09:19:00,
2013-12-18 02:25:00,15.1,12.2,25.31,NE,48,2.0,4.0,88,0.00,,,-99.99,FreeWX 2.04,2013-12-18 09:25:00,
2013-12-18 02:30:00,15.1,12.2,25.28,NE,48,2.0,3.6,88,0.00,,,-99.99,FreeWX 2.04,2013-12-18 09:30:00,
2013-12-18 02:35:00,15.3,12.4,25.28,NE,48,2.0,3.1,88,0.00,,,-99.99,FreeWX 2.04,2013-12-18 09:35:00,
2013-12-18 02:41:00,15.4,12.6,25.28,North,-999,0.0,2.7,88,0.00,,,-99.99,FreeWX 2.04,2013-12-18 09:41:00,
2013-12-18 02:46:00,16.2,13.5,25.28,North,-999,0.0,3.1,89,0.00,,,-99.99,FreeWX 2.04,2013-12-18 09:46:00,
2013-12-18 02:51:00,15.8,13.1,25.28,North,-999,0.0,0.0,89,0.00,,,-99.99,FreeWX 2.04,2013-12-18 09:51:00,
2013-12-18 02:57:00,15.4,12.7,25.28,North,-999,0.0,0.0,89,0.00,,,-99.99,FreeWX 2.04,2013-12-18 09:57:00,
2013-12-18 03:02:00,14.9,12.2,25.28,North,-999,0.0,0.0,89,0.00,,,-99.99,FreeWX 2.04,2013-12-18 10:02:00,
2013-12-18 03:07:00,15.4,12.7,25.28,North,-999,0.0,0.0,89,0.00,,,-99.99,FreeWX 2.04,2013-12-18 10:07:00,
2013-12-18 03:13:00,15.3,12.6,25.28,North,-999,0.0,0.0,89,0.00,,,-99.99,FreeWX 2.04,2013-12-18 10:13:00,
2013-12-18 03:18:00,15.3,12.9,25.28,North,-999,0.0,0.0,90,0.00,,,-99.99,FreeWX 2.04,2013-12-18 10:18:00,
2013-12-18 03:23:00,14.7,12.4,25.28,North,-999,0.0,0.0,90,0.00,,,-99.99,FreeWX 2.04,2013-12-18 10:23:00,
2013-12-18 03:29:00,15.4,13.1,25.28,North,-999,0.0,2.7,90,0.00,,,-99.99,FreeWX 2.04,2013-12-18 10:29:00,
2013-12-18 03:34:00,15.3,12.9,25.28,North,-999,0.0,0.0,90,0.00,,,-99.99,FreeWX 2.04,2013-12-18 10:34:00,
2013-12-18 03:39:00,15.6,13.3,25.28,North,-999,0.0,0.0,90,0.00,,,-99.99,FreeWX 2.04,2013-12-18 10:39:00,
2013-12-18 03:45:00,15.1,12.7,25.28,North,-999,0.0,0.0,90,0.00,,,-99.99,FreeWX 2.04,2013-12-18 10:45:00,
2013-12-18 03:50:00,14.2,11.8,25.28,North,-999,0.0,0.0,90,0.00,,,-99.99,FreeWX 2.04,2013-12-18 10:50:00,
2013-12-18 04:38:00,13.3,-99.9,25.25,North,-999,0.0,0.0,-999,0.00,,,-99.99,FreeWX 2.04,2013-12-18 11:38:00,
2013-12-18 04:43:00,14.0,-99.9,25.25,North,-999,0.0,3.1,-999,0.00,,,-99.99,FreeWX 2.04,2013-12-18 11:43:00,
2013-12-18 04:48:00,14.7,12.6,25.25,North,-999,0.0,0.0,91,0.00,,,-99.99,FreeWX 2.04,2013-12-18 11:48:00,
2013-12-18 04:53:00,12.9,-99.9,25.25,NE,50,1.0,4.0,-999,0.00,,,-99.99,FreeWX 2.04,2013-12-18 11:53:00,
2013-12-18 04:58:00,12.0,-99.9,25.25,NE,53,1.0,3.1,-999,0.00,,,-99.99,FreeWX 2.04,2013-12-18 11:58:00,
2013-12-18 05:03:00,12.0,-99.9,25.25,North,-999,0.0,2.7,-999,0.00,,,-99.99,FreeWX 2.04,2013-12-18 12:03:00,
2013-12-18 05:08:00,12.2,-99.9,25.25,North,-999,0.0,3.1,-999,0.00,,,-99.99,FreeWX 2.04,2013-12-18 12:08:00,
2013-12-18 05:13:00,12.7,-99.9,25.25,North,-999,0.0,2.7,-999,0.00,,,-99.99,FreeWX 2.04,2013-12-18 12:13:00,
2013-12-18 05:18:00,12.7,-99.9,25.25,North,-999,0.0,2.7,-999,0.00,,,-99.99,FreeWX 2.04,2013-12-18 12:18:00,
2013-12-18 05:23:00,12.7,-99.9,25.25,North,-999,0.0,0.0,-999,0.00,,,-99.99,FreeWX 2.04,2013-12-18 12:23:00,
2013-12-18 05:28:00,13.1,-99.9,25.25,North,-999,0.0,2.7,-999,0.00,,,-99.99,FreeWX 2.04,2013-12-18 12:28:00,
2013-12-18 05:33:00,12.6,-99.9,25.25,North,-999,0.0,3.1,-999,0.00,,,-99.99,FreeWX 2.04,2013-12-18 12:33:00,
2013-12-18 05:38:00,12.4,-99.9,25.25,North,-999,0.0,0.0,-999,0.00,,,-99.99,FreeWX 2.04,2013-12-18 12:38:00,
2013-12-18 05:43:00,11.7,-99.9,25.25,North,-999,0.0,0.0,-999,0.00,,,-99.99,FreeWX 2.04,2013-12-18 12:43:00,
2013-12-18 05:48:00,11.7,-99.9,25.25,North,-999,0.0,0.0,-999,0.00,,,-99.99,FreeWX 2.04,2013-12-18 12:48:00,
2013-12-18 05:53:00,11.5,-99.9,25.25,North,-999,0.0,0.0,-999,0.00,,,-99.99,FreeWX 2.04,2013-12-18 12:53:00,
2013-12-18 05:58:00,11.3,-99.9,25.25,North,-999,0.0,0.0,-999,0.00,,,-99.99,FreeWX 2.04,2013-12-18 12:58:00,
2013-12-18 06:03:00,11.7,-99.9,25.25,North,-999,0.0,0.0,-999,0.00,,,-99.99,FreeWX 2.04,2013-12-18 13:03:00,
2013-12-18 06:08:00,11.8,-99.9,25.25,North,-999,0.0,0.0,-999,0.00,,,-99.99,FreeWX 2.04,2013-12-18 13:08:00,
2013-12-18 06:13:00,11.8,-99.9,25.25,North,-999,0.0,0.0,-999,0.00,,,-99.99,FreeWX 2.04,2013-12-18 13:13:00,
2013-12-18 06:18:00,11.8,-99.9,25.25,North,-999,0.0,0.0,-999,0.00,,,-99.99,FreeWX 2.04,2013-12-18 13:18:00,
2013-12-18 06:23:00,12.4,-99.9,25.25,North,-999,0.0,0.0,-999,0.00,,,-99.99,FreeWX 2.04,2013-12-18 13:23:00,
2013-12-18 06:28:00,12.0,-99.9,25.25,North,-999,0.0,0.0,-999,0.00,,,-99.99,FreeWX 2.04,2013-12-18 13:28:00,
2013-12-18 06:33:00,12.4,-99.9,25.25,North,-999,0.0,0.0,-999,0.00,,,-99.99,FreeWX 2.04,2013-12-18 13:33:00,
2013-12-18 06:38:00,12.4,-99.9,25.25,North,-999,0.0,0.0,-999,0.00,,,-99.99,FreeWX 2.04,2013-12-18 13:38:00,
2013-12-18 06:43:00,12.6,-99.9,25.25,North,-999,0.0,0.0,-999,0.00,,,-99.99,FreeWX 2.04,2013-12-18 13:43:00,
2013-12-18 06:48:00,12.7,-99.9,25.25,North,-999,0.0,0.0,-999,0.00,,,-99.99,FreeWX 2.04,2013-12-18 13:48:00,
2013-12-18 06:53:00,12.7,-99.9,25.25,North,-999,0.0,0.0,-999,0.00,,,-99.99,FreeWX 2.04,2013-12-18 13:53:00,
2013-12-18 06:58:00,13.5,-99.9,25.22,North,-999,0.0,0.0,-999,0.00,,,-99.99,FreeWX 2.04,2013-12-18 13:58:00,
2013-12-18 07:04:00,13.8,-99.9,25.22,North,-999,0.0,0.0,-999,0.00,,,-99.99,FreeWX 2.04,2013-12-18 14:04:00,
2013-12-18 07:09:00,14.2,12.0,25.22,North,-999,0.0,0.0,91,0.00,,,-99.99,FreeWX 2.04,2013-12-18 14:09:00,
2013-12-18 07:14:00,14.4,12.2,25.22,North,-999,0.0,0.0,91,0.00,,,-99.99,FreeWX 2.04,2013-12-18 14:14:00,
2013-12-18 07:19:00,13.5,-99.9,25.22,North,-999,0.0,4.5,-999,0.00,,,-99.99,FreeWX 2.04,2013-12-18 14:19:00,
2013-12-18 07:24:00,12.9,-99.9,25.22,NE,55,1.0,3.6,-999,0.00,,,-99.99,FreeWX 2.04,2013-12-18 14:24:00,
2013-12-18 07:29:00,11.1,-99.9,25.22,ENE,58,2.0,4.5,-999,0.00,,,-99.99,FreeWX 2.04,2013-12-18 14:29:00,
2013-12-18 07:34:00,9.0,-99.9,25.22,ESE,113,3.0,5.8,-999,0.00,,,-99.99,FreeWX 2.04,2013-12-18 14:34:00,
2013-12-18 07:39:00,7.5,-99.9,25.22,SSE,162,4.0,6.3,-999,0.00,,,-99.99,FreeWX 2.04,2013-12-18 14:39:00,
2013-12-18 07:44:00,7.0,-99.9,25.25,SSE,165,4.0,5.4,-999,0.00,,,-99.99,FreeWX 2.04,2013-12-18 14:44:00,
2013-12-18 07:49:00,7.0,-99.9,25.25,South,169,2.0,3.6,-999,0.00,,,-99.99,FreeWX 2.04,2013-12-18 14:49:00,
2013-12-18 07:54:00,6.8,-99.9,25.25,South,169,1.0,3.1,-999,0.00,,,-99.99,FreeWX 2.04,2013-12-18 14:54:00,
2013-12-18 07:59:00,6.8,-99.9,25.25,North,-999,0.0,3.1,-999,0.00,,,-99.99,FreeWX 2.04,2013-12-18 14:59:00,
2013-12-18 08:04:00,7.0,-99.9,25.25,North,-999,0.0,0.0,-999,0.00,,,-99.99,FreeWX 2.04,2013-12-18 15:04:00,
2013-12-18 08:09:00,7.5,-99.9,25.25,North,-999,0.0,0.0,-999,0.00,,,-99.99,FreeWX 2.04,2013-12-18 15:09:00,
2013-12-18 08:14:00,7.9,-99.9,25.25,North,-999,0.0,0.0,-999,0.00,,,-99.99,FreeWX 2.04,2013-12-18 15:14:00,
2013-12-18 08:19:00,8.4,-99.9,25.25,North,-999,0.0,0.0,-999,0.00,,,-99.99,FreeWX 2.04,2013-12-18 15:19:00,
2013-12-18 08:24:00,9.3,-99.9,25.25,North,-999,0.0,2.7,-999,0.00,,,-99.99,FreeWX 2.04,2013-12-18 15:24:00,
2013-12-18 08:29:00,9.5,-99.9,25.25,North,-999,0.0,3.1,-999,0.00,,,-99.99,FreeWX 2.04,2013-12-18 15:29:00,
2013-12-18 08:34:00,9.5,-99.9,25.25,South,170,2.0,4.5,-999,0.00,,,-99.99,FreeWX 2.04,2013-12-18 15:34:00,
2013-12-18 08:39:00,9.9,-99.9,25.25,SSE,164,2.0,4.5,-999,0.00,,,-99.99,FreeWX 2.04,2013-12-18 15:39:00,
2013-12-18 08:44:00,10.2,-99.9,25.25,SSE,156,1.0,2.7,-999,0.00,,,-99.99,FreeWX 2.04,2013-12-18 15:44:00,
2013-12-18 08:49:00,10.6,-99.9,25.25,North,-999,0.0,2.7,-999,0.00,,,-99.99,FreeWX 2.04,2013-12-18 15:49:00,
2013-12-18 08:54:00,10.9,-99.9,25.25,North,-999,0.0,0.0,-999,0.00,,,-99.99,FreeWX 2.04,2013-12-18 15:54:00,
2013-12-18 08:59:00,11.1,-99.9,25.25,North,-999,0.0,0.0,-999,0.00,,,-99.99,FreeWX 2.04,2013-12-18 15:59:00,
2013-12-18 09:04:00,11.5,-99.9,25.25,North,-999,0.0,0.0,-999,0.00,,,-99.99,FreeWX 2.04,2013-12-18 16:04:00,
2013-12-18 09:09:00,12.4,-99.9,25.25,North,-999,0.0,0.0,-999,0.00,,,-99.99,FreeWX 2.04,2013-12-18 16:09:00,
2013-12-18 09:14:00,13.1,-99.9,25.25,North,-999,0.0,0.0,-999,0.00,,,-99.99,FreeWX 2.04,2013-12-18 16:14:00,
2013-12-18 09:19:00,13.5,-99.9,25.25,North,-999,0.0,0.0,-999,0.00,,,-99.99,FreeWX 2.04,2013-12-18 16:19:00,
2013-12-18 09:24:00,13.6,-99.9,25.25,North,-999,0.0,0.0,-999,0.00,,,-99.99,FreeWX 2.04,2013-12-18 16:24:00,
2013-12-18 09:29:00,13.6,-99.9,25.25,North,-999,0.0,0.0,-999,0.00,,,-99.99,FreeWX 2.04,2013-12-18 16:29:00,
2013-12-18 09:34:00,14.2,11.5,25.25,North,-999,0.0,0.0,89,0.00,,,-99.99,FreeWX 2.04,2013-12-18 16:34:00,
2013-12-18 09:39:00,14.0,11.3,25.25,North,-999,0.0,2.7,89,0.00,,,-99.99,FreeWX 2.04,2013-12-18 16:39:00,
2013-12-18 09:44:00,14.2,11.5,25.25,SSE,160,1.0,4.0,89,0.00,,,-99.99,FreeWX 2.04,2013-12-18 16:44:00,
2013-12-18 09:49:00,14.2,11.8,25.25,SSE,163,2.0,5.4,90,0.00,,,-99.99,FreeWX 2.04,2013-12-18 16:49:00,
2013-12-18 09:54:00,14.0,11.7,25.25,SSE,155,3.0,4.9,90,0.00,,,-99.99,FreeWX 2.04,2013-12-18 16:54:00,
2013-12-18 09:59:00,14.4,12.0,25.25,SE,146,3.0,4.5,90,0.00,,,-99.99,FreeWX 2.04,2013-12-18 16:59:00,
2013-12-18 10:04:00,15.3,12.9,25.25,SSE,148,1.0,2.7,90,0.00,,,-99.99,FreeWX 2.04,2013-12-18 17:04:00,
2013-12-18 10:09:00,16.9,14.5,25.25,North,-999,0.0,0.0,90,0.00,,,-99.99,FreeWX 2.04,2013-12-18 17:09:00,
2013-12-18 10:14:00,18.5,16.0,25.25,North,-999,0.0,2.7,90,0.00,,,-99.99,FreeWX 2.04,2013-12-18 17:14:00,
2013-12-18 10:19:00,18.9,16.7,25.25,North,-999,0.0,3.1,91,0.00,,,-99.99,FreeWX 2.04,2013-12-18 17:19:00,
2013-12-18 10:24:00,18.0,15.6,25.25,North,-999,0.0,3.6,90,0.00,,,-99.99,FreeWX 2.04,2013-12-18 17:24:00,
2013-12-18 10:29:00,19.6,17.1,25.22,North,-999,0.0,3.1,90,0.00,,,-99.99,FreeWX 2.04,2013-12-18 17:29:00,
2013-12-18 10:34:00,20.8,18.3,25.22,North,-999,0.0,0.0,90,0.00,,,-99.99,FreeWX 2.04,2013-12-18 17:34:00,
2013-12-18 10:39:00,22.1,19.6,25.22,North,-999,0.0,0.0,90,0.00,,,-99.99,FreeWX 2.04,2013-12-18 17:39:00,
2013-12-18 10:44:00,23.9,21.7,25.22,North,-999,0.0,3.1,91,0.00,,,-99.99,FreeWX 2.04,2013-12-18 17:44:00,
2013-12-18 10:49:00,23.2,21.0,25.22,North,-999,0.0,3.6,91,0.00,,,-99.99,FreeWX 2.04,2013-12-18 17:49:00,
2013-12-18 10:54:00,21.7,19.6,25.22,SE,142,2.0,4.0,91,0.00,,,-99.99,FreeWX 2.04,2013-12-18 17:54:00,
2013-12-18 10:59:00,21.7,19.2,25.22,SE,143,2.0,4.0,90,0.00,,,-99.99,FreeWX 2.04,2013-12-18 17:59:00,
2013-12-18 11:04:00,20.1,17.4,25.22,South,182,3.0,8.3,89,0.00,,,-99.99,FreeWX 2.04,2013-12-18 18:04:00,
2013-12-18 11:09:00,19.6,16.9,25.22,WSW,250,6.0,8.3,89,0.00,,,-99.99,FreeWX 2.04,2013-12-18 18:09:00,
2013-12-18 11:14:00,19.4,16.7,25.22,West,263,6.0,7.4,89,0.00,,,-99.99,FreeWX 2.04,2013-12-18 18:14:00,
2013-12-18 11:19:00,20.7,18.0,25.22,West,269,3.0,4.9,89,0.00,,,-99.99,FreeWX 2.04,2013-12-18 18:19:00,
2013-12-18 11:24:00,21.6,18.9,25.22,West,270,2.0,4.0,89,0.00,,,-99.99,FreeWX 2.04,2013-12-18 18:24:00,
2013-12-18 11:29:00,22.5,19.8,25.22,West,270,2.0,3.6,89,0.00,,,-99.99,FreeWX 2.04,2013-12-18 18:29:00,
2013-12-18 11:34:00,22.8,20.1,25.22,West,270,1.0,3.6,89,0.00,,,-99.99,FreeWX 2.04,2013-12-18 18:34:00,
2013-12-18 11:39:00,22.5,19.4,25.22,West,270,2.0,4.5,88,0.00,,,-99.99,FreeWX 2.04,2013-12-18 18:39:00,
2013-12-18 11:44:00,23.0,19.9,25.19,West,270,2.0,3.6,88,0.00,,,-99.99,FreeWX 2.04,2013-12-18 18:44:00,
2013-12-18 11:49:00,23.4,20.1,25.19,West,270,2.0,4.5,87,0.00,,,-99.99,FreeWX 2.04,2013-12-18 18:49:00,
2013-12-18 11:54:00,23.2,19.4,25.19,West,270,3.0,5.4,85,0.00,,,-99.99,FreeWX 2.04,2013-12-18 18:54:00,
2013-12-18 11:59:00,22.8,18.0,25.19,West,270,3.0,5.4,81,0.00,,,-99.99,FreeWX 2.04,2013-12-18 18:59:00,
2013-12-18 12:04:00,23.0,17.8,25.19,West,270,4.0,6.3,80,0.00,,,-99.99,FreeWX 2.04,2013-12-18 19:04:00,
2013-12-18 12:09:00,23.2,17.6,25.19,West,270,4.0,5.4,79,0.00,,,-99.99,FreeWX 2.04,2013-12-18 19:09:00,
2013-12-18 12:14:00,23.4,17.8,25.19,West,270,4.0,4.9,79,0.00,,,-99.99,FreeWX 2.04,2013-12-18 19:14:00,
2013-12-18 12:19:00,23.5,18.0,25.19,West,270,4.0,5.4,79,0.00,,,-99.99,FreeWX 2.04,2013-12-18 19:19:00,
2013-12-18 12:24:00,24.3,18.3,25.19,West,270,4.0,5.4,78,0.00,,,-99.99,FreeWX 2.04,2013-12-18 19:24:00,
2013-12-18 12:29:00,24.6,18.1,25.16,West,270,4.0,5.4,76,0.00,,,-99.99,FreeWX 2.04,2013-12-18 19:29:00,
2013-12-18 12:34:00,23.7,17.1,25.16,West,270,4.0,6.7,75,0.00,,,-99.99,FreeWX 2.04,2013-12-18 19:34:00,
2013-12-18 12:39:00,23.5,16.9,25.16,West,270,5.0,6.3,75,0.00,,,-99.99,FreeWX 2.04,2013-12-18 19:39:00,
2013-12-18 12:44:00,23.5,16.5,25.16,West,270,5.0,6.3,74,0.00,,,-99.99,FreeWX 2.04,2013-12-18 19:44:00,
2013-12-18 12:50:00,23.7,17.1,25.16,West,270,4.0,5.4,75,0.00,,,-99.99,FreeWX 2.04,2013-12-18 19:50:00,
2013-12-18 12:55:00,23.7,17.1,25.16,West,270,4.0,5.4,75,0.00,,,-99.99,FreeWX 2.04,2013-12-18 19:55:00,
2013-12-18 13:00:00,24.4,17.6,25.16,West,270,3.0,4.0,75,0.00,,,-99.99,FreeWX 2.04,2013-12-18 20:00:00,
2013-12-18 13:05:00,25.3,18.9,25.16,West,269,2.0,3.1,76,0.00,,,-99.99,FreeWX 2.04,2013-12-18 20:05:00,
2013-12-18 13:10:00,26.4,19.2,25.16,North,-999,0.0,3.1,74,0.00,,,-99.99,FreeWX 2.04,2013-12-18 20:10:00,
2013-12-18 13:15:00,27.7,20.5,25.13,North,-999,0.0,3.1,74,0.00,,,-99.99,FreeWX 2.04,2013-12-18 20:15:00,
2013-12-18 13:20:00,27.5,19.0,25.13,North,-999,0.0,3.1,70,0.00,,,-99.99,FreeWX 2.04,2013-12-18 20:20:00,
2013-12-18 13:25:00,27.0,17.1,25.13,West,271,1.0,3.6,66,0.00,,,-99.99,FreeWX 2.04,2013-12-18 20:25:00,
2013-12-18 13:30:00,27.7,18.1,25.13,West,271,1.0,2.7,67,0.00,,,-99.99,FreeWX 2.04,2013-12-18 20:30:00,
2013-12-18 13:35:00,28.0,18.5,25.13,North,-999,0.0,0.0,67,0.00,,,-99.99,FreeWX 2.04,2013-12-18 20:35:00,
2013-12-18 13:40:00,27.1,15.4,25.13,West,271,1.0,4.5,61,0.00,,,-99.99,FreeWX 2.04,2013-12-18 20:40:00,
2013-12-18 13:45:00,25.7,15.3,25.13,West,269,4.0,7.4,64,0.00,,,-99.99,FreeWX 2.04,2013-12-18 20:45:00,
2013-12-18 13:50:00,25.3,16.0,25.13,West,259,5.0,6.7,67,0.00,,,-99.99,FreeWX 2.04,2013-12-18 20:50:00,
2013-12-18 13:55:00,25.2,15.8,25.13,WSW,250,5.0,6.7,67,0.00,,,-99.99,FreeWX 2.04,2013-12-18 20:55:00,
2013-12-18 14:00:00,25.3,16.0,25.10,WSW,250,4.0,5.4,67,0.00,,,-99.99,FreeWX 2.04,2013-12-18 21:00:00,
2013-12-18 14:05:00,25.5,15.8,25.10,WSW,252,4.0,4.9,66,0.00,,,-99.99,FreeWX 2.04,2013-12-18 21:05:00,
2013-12-18 14:10:00,25.5,15.8,25.10,WSW,254,4.0,5.4,66,0.00,,,-99.99,FreeWX 2.04,2013-12-18 21:10:00,
2013-12-18 14:15:00,25.2,15.8,25.10,WSW,254,4.0,6.7,67,0.00,,,-99.99,FreeWX 2.04,2013-12-18 21:15:00,
2013-12-18 14:20:00,25.2,15.8,25.10,WSW,254,5.0,6.3,67,0.00,,,-99.99,FreeWX 2.04,2013-12-18 21:20:00,
2013-12-18 14:25:00,25.2,16.2,25.10,WSW,257,4.0,5.4,68,0.00,,,-99.99,FreeWX 2.04,2013-12-18 21:25:00,
2013-12-18 14:30:00,25.3,16.0,25.10,West,262,4.0,5.4,67,0.00,,,-99.99,FreeWX 2.04,2013-12-18 21:30:00,
2013-12-18 14:35:00,25.5,16.5,25.10,West,262,4.0,5.8,68,0.00,,,-99.99,FreeWX 2.04,2013-12-18 21:35:00,
2013-12-18 14:40:00,26.1,16.7,25.10,SW,234,4.0,5.8,67,0.00,,,-99.99,FreeWX 2.04,2013-12-18 21:40:00,
2013-12-18 14:45:00,26.4,16.7,25.10,SSW,208,3.0,3.6,66,0.00,,,-99.99,FreeWX 2.04,2013-12-18 21:45:00,
2013-12-18 14:50:00,26.2,15.8,25.10,SSW,207,3.0,4.9,64,0.00,,,-99.99,FreeWX 2.04,2013-12-18 21:50:00,
2013-12-18 14:55:00,26.4,15.6,25.10,SSW,204,4.0,4.9,63,0.00,,,-99.99,FreeWX 2.04,2013-12-18 21:55:00,
2013-12-18 15:00:00,26.6,15.8,25.10,SSW,203,3.0,4.9,63,0.00,,,-99.99,FreeWX 2.04,2013-12-18 22:00:00,
2013-12-18 15:05:00,26.6,15.4,25.10,SSW,203,3.0,4.9,62,0.00,,,-99.99,FreeWX 2.04,2013-12-18 22:05:00,
2013-12-18 15:10:00,26.4,15.3,25.10,SSW,200,4.0,5.4,62,0.00,,,-99.99,FreeWX 2.04,2013-12-18 22:10:00,
2013-12-18 15:15:00,26.4,15.6,25.10,SSW,194,4.0,5.4,63,0.00,,,-99.99,FreeWX 2.04,2013-12-18 22:15:00,
2013-12-18 15:20:00,26.2,15.4,25.10,South,187,4.0,6.3,63,0.00,,,-99.99,FreeWX 2.04,2013-12-18 22:20:00,
2013-12-18 15:25:00,26.2,15.8,25.10,South,188,5.0,6.3,64,0.00,,,-99.99,FreeWX 2.04,2013-12-18 22:25:00,
2013-12-18 15:30:00,26.1,15.6,25.10,SSW,192,4.0,5.4,64,0.00,,,-99.99,FreeWX 2.04,2013-12-18 22:30:00,
2013-12-18 15:35:00,26.1,16.0,25.10,South,191,3.0,4.5,65,0.00,,,-99.99,FreeWX 2.04,2013-12-18 22:35:00,
2013-12-18 15:40:00,25.7,16.3,25.10,SSW,196,3.0,5.4,67,0.00,,,-99.99,FreeWX 2.04,2013-12-18 22:40:00,
2013-12-18 15:45:00,25.3,16.0,25.10,SW,214,3.0,4.5,67,0.00,,,-99.99,FreeWX 2.04,2013-12-18 22:45:00,
2013-12-18 15:50:00,25.2,15.8,25.10,SW,232,4.0,5.8,67,0.00,,,-99.99,FreeWX 2.04,2013-12-18 22:50:00,
2013-12-18 15:55:00,25.0,16.5,25.10,WSW,241,4.0,6.3,70,0.00,,,-99.99,FreeWX 2.04,2013-12-18 22:55:00,
2013-12-18 16:00:00,24.6,16.5,25.10,WSW,241,5.0,6.9,71,0.00,,,-99.99,FreeWX 2.04,2013-12-18 23:00:00,
2013-12-18 16:05:00,24.6,16.5,25.10,WSW,238,5.0,6.3,71,0.00,,,-99.99,FreeWX 2.04,2013-12-18 23:05:00,
2013-12-18 16:10:00,24.6,16.9,25.10,WSW,240,4.0,6.3,72,0.00,,,-99.99,FreeWX 2.04,2013-12-18 23:10:00,
2013-12-18 16:15:00,24.4,17.4,25.10,SW,231,4.0,5.4,74,0.00,,,-99.99,FreeWX 2.04,2013-12-18 23:15:00,
2013-12-18 16:20:00,24.3,16.9,25.10,SW,231,4.0,5.8,73,0.00,,,-99.99,FreeWX 2.04,2013-12-18 23:20:00,
2013-12-18 16:25:00,24.3,16.9,25.10,WSW,246,4.0,4.5,73,0.00,,,-99.99,FreeWX 2.04,2013-12-18 23:25:00,
2013-12-18 16:30:00,24.3,16.9,25.07,WSW,249,2.0,3.6,73,0.00,,,-99.99,FreeWX 2.04,2013-12-18 23:30:00,
2013-12-18 16:35:00,24.3,16.9,25.07,North,-999,0.0,0.0,73,0.00,,,-99.99,FreeWX 2.04,2013-12-18 23:35:00,
2013-12-18 16:41:00,24.6,17.2,25.07,North,-999,0.0,4.5,73,0.00,,,-99.99,FreeWX 2.04,2013-12-18 23:41:00,
2013-12-18 16:46:00,24.6,17.2,25.07,NW,323,1.0,4.9,73,0.00,,,-99.99,FreeWX 2.04,2013-12-18 23:46:00,
2013-12-18 16:51:00,24.4,17.4,25.07,NNW,339,3.0,6.7,74,0.00,,,-99.99,FreeWX 2.04,2013-12-18 23:51:00,
2013-12-18 16:56:00,24.3,17.2,25.07,SW,214,4.0,6.9,74,0.00,,,-99.99,FreeWX 2.04,2013-12-18 23:56:00,
2013-12-18 17:01:00,24.3,17.2,25.07,South,177,3.0,6.3,74,0.00,,,-99.99,FreeWX 2.04,2013-12-19 00:01:00,
2013-12-18 17:06:00,24.1,17.1,25.07,South,178,1.0,3.6,74,0.00,,,-99.99,FreeWX 2.04,2013-12-19 00:06:00,
2013-12-18 17:11:00,24.3,17.2,25.07,North,-999,0.0,3.1,74,0.00,,,-99.99,FreeWX 2.04,2013-12-19 00:11:00,
2013-12-18 17:16:00,24.4,17.4,25.07,South,178,1.0,3.6,74,0.00,,,-99.99,FreeWX 2.04,2013-12-19 00:16:00,
2013-12-18 17:21:00,24.6,17.6,25.07,South,178,1.0,3.6,74,0.00,,,-99.99,FreeWX 2.04,2013-12-19 00:21:00,
2013-12-18 17:26:00,24.8,17.8,25.07,SSE,163,1.0,4.5,74,0.00,,,-99.99,FreeWX 2.04,2013-12-19 00:26:00,
2013-12-18 17:31:00,24.8,17.8,25.07,North,-999,0.0,3.1,74,0.00,,,-99.99,FreeWX 2.04,2013-12-19 00:31:00,
2013-12-18 17:36:00,24.8,17.8,25.07,North,-999,0.0,0.0,74,0.00,,,-99.99,FreeWX 2.04,2013-12-19 00:36:00,
2013-12-18 17:41:00,24.8,18.0,25.07,SE,130,1.0,4.5,75,0.00,,,-99.99,FreeWX 2.04,2013-12-19 00:41:00,
2013-12-18 17:46:00,25.5,18.7,25.07,SSE,166,2.0,4.5,75,0.00,,,-99.99,FreeWX 2.04,2013-12-19 00:46:00,
2013-12-18 17:51:00,25.9,19.0,25.07,South,182,2.0,3.6,75,0.00,,,-99.99,FreeWX 2.04,2013-12-19 00:51:00,
2013-12-18 17:56:00,25.5,18.7,25.07,South,186,2.0,5.8,75,0.00,,,-99.99,FreeWX 2.04,2013-12-19 00:56:00,
2013-12-18 18:01:00,24.4,18.0,25.07,SSW,212,3.0,6.3,76,0.00,,,-99.99,FreeWX 2.04,2013-12-19 01:01:00,
2013-12-18 18:06:00,24.6,18.1,25.07,West,278,3.0,5.8,76,0.00,,,-99.99,FreeWX 2.04,2013-12-19 01:06:00,
2013-12-18 18:11:00,24.8,18.7,25.04,North,355,1.0,3.6,77,0.00,,,-99.99,FreeWX 2.04,2013-12-19 01:11:00,
2013-12-18 18:16:00,24.8,18.3,25.04,North,1,1.0,4.0,76,0.00,,,-99.99,FreeWX 2.04,2013-12-19 01:16:00,
2013-12-18 18:21:00,24.6,18.5,25.04,NW,307,3.0,6.3,77,0.00,,,-99.99,FreeWX 2.04,2013-12-19 01:21:00,
2013-12-18 18:26:00,24.3,18.3,25.04,WSW,238,2.0,3.6,78,0.00,,,-99.99,FreeWX 2.04,2013-12-19 01:26:00,
2013-12-18 18:31:00,24.3,18.3,25.04,WSW,238,1.0,4.0,78,0.00,,,-99.99,FreeWX 2.04,2013-12-19 01:31:00,
2013-12-18 18:36:00,24.3,18.3,25.04,WSW,238,1.0,0.0,78,0.00,,,-99.99,FreeWX 2.04,2013-12-19 01:36:00,
2013-12-18 18:41:00,24.3,18.7,25.04,North,-999,0.0,0.0,79,0.00,,,-99.99,FreeWX 2.04,2013-12-19 01:41:00,
2013-12-18 18:46:00,24.3,18.7,25.04,North,-999,0.0,0.0,79,0.00,,,-99.99,FreeWX 2.04,2013-12-19 01:46:00,
2013-12-18 18:51:00,24.4,18.5,25.04,North,-999,0.0,4.5,78,0.00,,,-99.99,FreeWX 2.04,2013-12-19 01:51:00,
2013-12-18 18:56:00,24.6,19.0,25.04,West,278,1.0,4.0,79,0.00,,,-99.99,FreeWX 2.04,2013-12-19 01:56:00,
2013-12-18 19:01:00,24.4,18.9,25.04,WNW,290,2.0,4.9,79,0.00,,,-99.99,FreeWX 2.04,2013-12-19 02:01:00,
2013-12-18 19:06:00,24.4,18.9,25.04,WNW,285,1.0,2.7,79,0.00,,,-99.99,FreeWX 2.04,2013-12-19 02:06:00,
2013-12-18 19:11:00,24.3,18.7,25.04,North,-999,0.0,3.1,79,0.00,,,-99.99,FreeWX 2.04,2013-12-19 02:11:00,
2013-12-18 19:16:00,24.4,18.9,25.04,North,-999,0.0,3.1,79,0.00,,,-99.99,FreeWX 2.04,2013-12-19 02:16:00,
2013-12-18 19:22:00,24.4,19.2,25.04,North,-999,0.0,0.0,80,0.00,,,-99.99,FreeWX 2.04,2013-12-19 02:22:00,
2013-12-18 19:27:00,24.4,18.9,25.04,North,-999,0.0,2.7,79,0.00,,,-99.99,FreeWX 2.04,2013-12-19 02:27:00,
2013-12-18 19:32:00,24.6,19.0,25.04,WNW,288,1.0,4.9,79,0.00,,,-99.99,FreeWX 2.04,2013-12-19 02:32:00,
2013-12-18 19:37:00,24.6,19.0,25.04,NW,317,2.0,4.9,79,0.00,,,-99.99,FreeWX 2.04,2013-12-19 02:37:00,
2013-12-18 19:42:00,24.8,19.2,25.01,NNW,339,1.0,3.6,79,0.00,,,-99.99,FreeWX 2.04,2013-12-19 02:42:00,
2013-12-18 19:47:00,25.2,19.6,25.01,North,350,3.0,6.9,79,0.00,,,-99.99,FreeWX 2.04,2013-12-19 02:47:00,
2013-12-18 19:52:00,25.5,19.9,25.01,North,350,4.0,6.7,79,0.00,,,-99.99,FreeWX 2.04,2013-12-19 02:52:00,
2013-12-18 19:57:00,25.5,19.9,25.01,NNW,341,4.0,6.7,79,0.00,,,-99.99,FreeWX 2.04,2013-12-19 02:57:00,
2013-12-18 20:02:00,25.5,19.6,25.01,NNW,328,4.0,7.4,78,0.00,,,-99.99,FreeWX 2.04,2013-12-19 03:02:00,
2013-12-18 20:07:00,25.5,19.4,25.01,NW,318,6.0,9.2,77,0.00,,,-99.99,FreeWX 2.04,2013-12-19 03:07:00,
2013-12-18 20:12:00,25.9,19.4,25.01,NW,319,5.0,7.8,76,0.04,,,-99.99,FreeWX 2.04,2013-12-19 03:12:00,
2013-12-18 20:17:00,25.7,19.2,25.01,NW,317,5.0,7.4,76,0.04,,,-99.99,FreeWX 2.04,2013-12-19 03:17:00,
2013-12-18 20:22:00,25.9,19.4,25.01,NW,315,6.0,8.3,76,0.04,,,-99.99,FreeWX 2.04,2013-12-19 03:22:00,
2013-12-18 20:27:00,26.1,19.6,24.98,NNW,332,4.0,6.3,76,0.04,,,-99.99,FreeWX 2.04,2013-12-19 03:27:00,
2013-12-18 20:32:00,25.9,19.4,24.98,North,356,1.0,3.6,76,0.04,,,-99.99,FreeWX 2.04,2013-12-19 03:32:00,
2013-12-18 20:37:00,25.9,19.4,24.98,North,1,1.0,5.4,76,0.04,,,-99.99,FreeWX 2.04,2013-12-19 03:37:00,
2013-12-18 20:42:00,25.7,19.6,24.98,North,357,3.0,7.4,77,0.04,,,-99.99,FreeWX 2.04,2013-12-19 03:42:00,
2013-12-18 20:47:00,25.7,19.6,24.98,North,356,6.0,7.8,77,0.04,,,-99.99,FreeWX 2.04,2013-12-19 03:47:00,
2013-12-18 20:52:00,25.7,19.6,24.98,North,7,5.0,7.8,77,0.04,,,-99.99,FreeWX 2.04,2013-12-19 03:52:00,
2013-12-18 20:57:00,25.7,19.6,24.95,North,11,4.0,6.7,77,0.04,,,-99.99,FreeWX 2.04,2013-12-19 03:57:00,
2013-12-18 21:02:00,26.1,20.1,24.95,North,354,3.0,5.8,78,0.04,,,-99.99,FreeWX 2.04,2013-12-19 04:02:00,
2013-12-18 21:07:00,25.9,19.9,24.95,NW,317,3.0,5.8,78,0.00,,,-99.99,FreeWX 2.04,2013-12-19 04:07:00,
2013-12-18 21:12:00,25.9,19.9,24.95,WNW,296,1.0,0.0,78,0.00,,,-99.99,FreeWX 2.04,2013-12-19 04:12:00,
2013-12-18 21:17:00,25.9,19.9,24.95,North,-999,0.0,3.6,78,0.00,,,-99.99,FreeWX 2.04,2013-12-19 04:17:00,
2013-12-18 21:22:00,25.7,19.8,24.95,North,-999,0.0,3.1,78,0.00,,,-99.99,FreeWX 2.04,2013-12-19 04:22:00,
2013-12-18 21:27:00,25.5,19.9,24.95,North,-999,0.0,3.6,79,0.00,,,-99.99,FreeWX 2.04,2013-12-19 04:27:00,
2013-12-18 21:32:00,25.5,20.3,24.95,WNW,293,2.0,4.0,80,0.00,,,-99.99,FreeWX 2.04,2013-12-19 04:32:00,
2013-12-18 21:37:00,25.0,19.8,24.95,West,275,3.0,5.8,80,0.00,,,-99.99,FreeWX 2.04,2013-12-19 04:37:00,
2013-12-18 21:42:00,24.6,19.6,24.95,SSW,207,4.0,7.4,81,0.00,,,-99.99,FreeWX 2.04,2013-12-19 04:42:00,
2013-12-18 21:47:00,24.8,20.1,24.95,South,183,6.0,10.1,82,0.00,,,-99.99,FreeWX 2.04,2013-12-19 04:47:00,
2013-12-18 21:52:00,24.6,19.9,24.95,South,180,6.0,8.3,82,0.00,,,-99.99,FreeWX 2.04,2013-12-19 04:52:00,
2013-12-18 21:57:00,24.3,19.2,24.95,South,176,4.0,5.8,81,0.00,,,-99.99,FreeWX 2.04,2013-12-19 04:57:00,
2013-12-18 22:02:00,23.9,18.9,24.95,South,173,4.0,6.3,81,0.00,,,-99.99,FreeWX 2.04,2013-12-19 05:02:00,
2013-12-18 22:07:00,23.7,19.0,24.95,South,172,5.0,7.8,82,0.00,,,-99.99,FreeWX 2.04,2013-12-19 05:07:00,
2013-12-18 22:12:00,23.9,19.6,24.95,South,188,6.0,9.2,83,0.00,,,-99.99,FreeWX 2.04,2013-12-19 05:12:00,
2013-12-18 22:17:00,23.4,18.7,24.95,SSW,205,7.0,10.1,82,0.00,,,-99.99,FreeWX 2.04,2013-12-19 05:17:00,
2013-12-18 22:22:00,23.0,18.7,24.95,SSW,202,7.0,8.7,83,0.00,,,-99.99,FreeWX 2.04,2013-12-19 05:22:00,
2013-12-18 22:27:00,22.6,18.3,24.95,South,186,5.0,6.9,83,0.00,,,-99.99,FreeWX 2.04,2013-12-19 05:27:00,
2013-12-18 22:32:00,22.5,18.3,24.95,South,187,5.0,7.4,84,0.00,,,-99.99,FreeWX 2.04,2013-12-19 05:32:00,
2013-12-18 22:37:00,22.3,18.5,24.95,SSW,197,5.0,6.7,85,0.00,,,-99.99,FreeWX 2.04,2013-12-19 05:37:00,
2013-12-18 22:42:00,22.5,18.7,24.95,SSW,205,3.0,4.9,85,0.00,,,-99.99,FreeWX 2.04,2013-12-19 05:42:00,
2013-12-18 22:47:00,22.1,18.3,24.95,SW,221,1.0,3.1,85,0.00,,,-99.99,FreeWX 2.04,2013-12-19 05:47:00,
2013-12-18 22:52:00,22.1,18.3,24.95,North,-999,0.0,3.1,85,0.00,,,-99.99,FreeWX 2.04,2013-12-19 05:52:00,
2013-12-18 22:57:00,21.9,18.1,24.95,SW,217,1.0,4.0,85,0.00,,,-99.99,FreeWX 2.04,2013-12-19 05:57:00,
2013-12-18 23:02:00,21.9,18.1,24.95,SSW,196,1.0,3.1,85,0.00,,,-99.99,FreeWX 2.04,2013-12-19 06:02:00,
2013-12-18 23:07:00,21.7,18.0,24.95,South,188,1.0,3.1,85,0.00,,,-99.99,FreeWX 2.04,2013-12-19 06:07:00,
2013-12-18 23:12:00,21.4,17.6,24.92,North,-999,0.0,2.7,85,0.00,,,-99.99,FreeWX 2.04,2013-12-19 06:12:00,
2013-12-18 23:17:00,21.0,17.2,24.92,North,-999,0.0,2.7,85,0.00,,,-99.99,FreeWX 2.04,2013-12-19 06:17:00,
2013-12-18 23:22:00,21.0,17.2,24.92,North,-999,0.0,3.1,85,0.00,,,-99.99,FreeWX 2.04,2013-12-19 06:22:00,
2013-12-18 23:27:00,20.7,16.9,24.92,North,-999,0.0,2.7,85,0.00,,,-99.99,FreeWX 2.04,2013-12-19 06:27:00,
2013-12-18 23:32:00,20.5,16.7,24.92,North,-999,0.0,3.6,85,0.00,,,-99.99,FreeWX 2.04,2013-12-19 06:32:00,
2013-12-18 23:37:00,20.1,16.3,24.92,SSW,192,1.0,4.5,85,0.00,,,-99.99,FreeWX 2.04,2013-12-19 06:37:00,
2013-12-18 23:42:00,20.5,16.7,24.92,SSW,200,1.0,2.7,85,0.00,,,-99.99,FreeWX 2.04,2013-12-19 06:42:00,
2013-12-18 23:47:00,20.7,17.1,24.92,North,-999,0.0,2.7,86,0.00,,,-99.99,FreeWX 2.04,2013-12-19 06:47:00,
2013-12-18 23:52:00,20.3,16.9,24.92,North,-999,0.0,2.7,86,0.00,,,-99.99,FreeWX 2.04,2013-12-19 06:52:00,
2013-12-18 23:57:00,20.3,17.1,24.92,North,-999,0.0,3.1,87,0.00,,,-99.99,FreeWX 2.04,2013-12-19 06:57:00,